[[{"header":{"parameterUnit":"m.s-1","parameterCategory":1,"la1":30.2991,"la2":30.254,"lo1":-89.0895,"lo2":-89.0444,"dy":0.0017,"dx":0.0017,"nx":28,"ny":28,"refTime":"2026-01-06T03:00:00:Z","depth":0,"parameterNumber":2,"parameterNumberName":"U-component_of_WINDS"},"data":[0,0,0,0,0,0,0,0,0,0,0,0,0,0,0,0,0,0,0,0,0,0,0,0,0,0,0,0,0,0,0,0,0,0,0,0,0,0,0,0,0,0,0,0,0,0,0,0,0,0,0,0,0,0,0,0,0,0,3.2975,3.2976,0,3.3094,3.3095,3.3096,3.3062,3.306,3.3057,3.3055,3.3185,3.3191,3.3197,0,0,0,0,0,0,0,0,0,0,0,0,0,3.273,3.2734,3.2975,3.2977,3.2978,3.3093,3.3095,3.3097,3.3063,3.306,3.3057,3.3054,3.3183,3.319,3.3197,0,0,0,0,0,0,0,0,0,0,0,0,0,3.2841,3.2736,3.2975,3.2975,3.2976,3.3093,3.3095,3.3097,3.3063,3.306,3.3056,3.3052,3.3181,3.319,3.3198,3.3325,0,0,3.3225,3.3228,0,0,0,0,0,0,0,0,3.2835,3.285,3.2973,3.2975,3.2976,3.3059,3.3056,3.3174,3.3064,3.303,3.3055,3.3051,3.3147,3.3158,3.3189,3.3331,3.3337,3.3225,3.3231,3.3234,3.3237,0,0,0,0,0,0,0,3.2827,3.2845,3.3022,3.2975,3.2977,3.2972,3.2984,3.3078,3.3108,3.3033,3.3031,3.3045,3.3147,3.3181,3.3192,3.3339,3.3225,3.3233,3.3238,3.3242,3.3595,3.3599,0,0,0,0,0,0,3.2817,3.2839,3.3018,3.3026,3.2895,3.298,3.2993,3.3036,3.3107,3.3114,3.3048,3.3043,3.3168,3.3182,3.3196,3.3351,3.3234,3.3242,3.3247,3.3591,3.3596,3.3601,0,0,0,0,0,0,3.2812,3.2833,3.3014,3.2932,3.2954,3.2988,3.3037,3.3041,3.3074,3.3118,3.3124,3.3076,3.3165,3.3184,3.3293,3.3355,3.3246,3.3254,3.3586,3.3593,3.3599,3.3661,0,0,0,0,0,0,3.2805,3.2832,3.2878,3.2933,3.2959,3.3106,3.3041,3.3046,3.3088,3.3082,3.3146,3.3153,3.3164,3.3281,3.3302,3.3365,3.3261,3.3581,3.3589,3.3597,3.3654,3.3669,3.3682,0,0,0,0,0,3.2796,3.2892,3.288,3.2902,3.3016,3.3109,3.3125,3.3132,3.3093,3.3141,3.317,3.3151,3.3345,3.3292,3.3316,3.3382,3.3577,3.3587,3.3596,3.3647,3.3666,3.3681,0,0,0,0,0,0,3.2846,3.2899,3.2887,3.3002,3.3051,3.3103,3.3164,3.3151,3.3215,3.3207,3.3217,3.3232,3.3345,3.3375,3.3315,3.3511,3.3456,3.347,3.3487,3.3505,3.3518,3.3509,3.3268,0,0,0,0,0,3.2869,3.2937,3.2982,3.308,3.3105,3.3131,3.3172,3.3173,3.3226,3.3247,3.3284,3.3338,3.3412,3.346,3.353,3.3658,3.3673,3.3716,3.373,3.3741,3.3754,3.3827,3.3847,3.3632,3.3632,3.3632,0,0,3.292,3.2958,3.3001,3.3091,3.3129,3.3203,3.3148,3.3228,3.3284,3.326,3.3365,3.3395,3.3456,3.3576,3.3631,3.3605,3.3817,3.3753,3.3762,3.3769,3.3839,3.3859,3.3877,3.3638,3.3637,3.3636,0,0,3.3051,3.3085,3.3171,3.321,3.3268,3.3285,3.3306,3.3361,3.3378,3.3483,3.3468,3.3536,3.3662,3.3707,3.3746,3.3896,3.3882,3.3919,3.3992,3.4063,3.408,3.4095,3.4151,3.417,3.3932,3.3932,3.3932,0,3.3107,3.3214,3.3218,3.3299,3.334,3.332,3.341,3.3449,3.3528,3.3559,3.3528,3.3686,3.3726,3.3857,3.3894,3.3926,3.3953,3.3912,3.4077,3.4092,3.4106,3.4159,3.418,3.3936,3.3936,3.3935,3.3935,0,3.3282,3.3356,3.342,3.3494,3.3543,3.3628,3.3648,3.3698,3.3696,3.3718,3.3827,3.3875,3.3954,3.3986,3.3986,3.4119,3.4101,3.4073,3.4018,3.4131,3.4181,3.4201,3.3942,3.3941,3.3939,3.3938,0,0,3.3445,3.352,3.3544,3.3578,3.3642,3.3701,3.3788,3.3863,3.3906,3.3963,3.4037,3.4145,3.412,3.4165,3.4171,3.4233,3.4351,3.4198,3.42,3.4226,3.4503,3.4523,3.4546,3.4342,3.4346,3.4349,3.4498,0,3.3581,3.3728,3.3735,3.3871,3.3942,3.3925,3.4001,3.405,3.4073,3.414,3.4167,3.4243,3.4204,3.4231,3.4292,3.4324,3.4407,3.4313,3.4414,3.4418,3.4399,3.4572,3.4593,3.4731,3.4517,3.4521,3.4523,0,3.3758,3.3818,3.3959,3.4015,3.4045,3.4112,3.4183,3.4246,3.4303,3.4316,3.4367,3.4364,3.4456,3.4398,3.4527,3.4463,3.4506,3.4528,3.4534,3.4544,3.4477,3.4588,3.4775,3.4796,3.4554,3.4551,3.4549,0,3.3864,3.398,3.408,3.411,3.4177,3.4225,3.4256,3.4309,3.4354,3.4418,3.4449,3.4524,3.4565,3.4625,3.4644,3.4599,3.4774,3.4716,3.4789,3.4789,3.4826,3.4824,3.5024,3.4853,3.4853,3.4852,3.4852,0,3.4015,3.4103,3.4128,3.419,3.429,3.4299,3.4398,3.4427,3.4475,3.4545,3.4536,3.4603,3.4624,3.4695,3.4711,3.4817,3.4836,3.4851,3.4854,3.4852,3.485,3.488,3.4871,3.4858,3.4857,3.4856,3.4855,0,3.4149,3.417,3.4278,3.4333,3.4349,3.442,3.4468,3.4529,3.4552,3.464,3.4662,3.4698,3.4782,3.4807,3.4908,3.4919,3.5044,3.5038,3.5023,3.5024,3.5096,3.5089,3.5322,3.5354,3.5162,3.5164,3.5165,0,3.4244,3.4311,3.4373,3.4417,3.4449,3.4522,3.4568,3.4582,3.4632,3.4703,3.4757,3.4839,3.4905,3.504,3.5078,3.5157,3.5154,3.523,3.5165,3.5162,3.5156,3.5152,3.516,3.5242,3.5244,3.5246,3.5247,0,3.4411,3.4418,3.4484,3.4554,3.4609,3.4666,3.472,3.4759,3.4781,3.4838,3.4922,3.4973,3.5076,3.5159,3.5239,3.5275,3.5267,3.5268,3.5289,3.5287,3.5276,3.5284,3.5057,3.5262,3.5261,3.526,3.5259,3.5258,3.4529,3.4589,3.4641,3.4716,3.4758,3.481,3.487,3.49,3.4969,3.5052,3.5058,3.515,3.5209,3.5315,3.5355,3.543,3.5408,3.5438,3.5446,3.5453,3.546,3.5264,3.5444,3.5444,3.5444,3.5443,3.5443,0,3.4696,3.473,3.4798,3.4874,3.4933,3.4918,3.4978,3.503,3.511,3.5164,3.5229,3.5328,3.5409,3.5453,3.5535,3.5586,3.5585,3.5608,3.5604,3.5613,3.5474,3.5448,3.5608,3.5608,3.5607,3.5607,3.5607,3.5607,3.479,3.489,3.4904,3.5027,3.5061,3.5148,3.5185,3.5234,3.5277,3.5386,3.5453,3.548,3.5532,3.5618,3.5693,3.5704,3.5735,3.5761,3.577,3.5639,3.5623,3.5606,3.5582,3.5767,3.5767,3.5903,3.5904,3.5905]},{"header":{"parameterUnit":"m.s-1","parameterCategory":1,"la1":30.2991,"la2":30.254,"lo1":-89.0895,"lo2":-89.0444,"dy":0.0017,"dx":0.0017,"nx":28,"ny":28,"refTime":"2026-01-06T03:00:00:Z","depth":0,"parameterNumber":3,"parameterNumberName":"V-component_of_WINDS"},"data":[0,0,0,0,0,0,0,0,0,0,0,0,0,0,0,0,0,0,0,0,0,0,0,0,0,0,0,0,0,0,0,0,0,0,0,0,0,0,0,0,0,0,0,0,0,0,0,0,0,0,0,0,0,0,0,0,0,0,2.3098,2.3099,0,2.3207,2.3208,2.321,2.3226,2.3225,2.3224,2.3223,2.3338,2.3341,2.3345,0,0,0,0,0,0,0,0,0,0,0,0,0,2.2905,2.2908,2.3098,2.3099,2.31,2.3207,2.3208,2.321,2.3227,2.3225,2.3224,2.3223,2.3336,2.3341,2.3346,0,0,0,0,0,0,0,0,0,0,0,0,0,2.2999,2.291,2.3097,2.3121,2.3125,2.3207,2.3208,2.321,2.3227,2.3225,2.3224,2.3222,2.3335,2.334,2.3346,2.3412,0,0,2.3364,2.3367,0,0,0,0,0,0,0,0,2.2994,2.3006,2.3117,2.312,2.3124,2.3201,2.3182,2.3278,2.3227,2.3188,2.3223,2.3222,2.3294,2.3303,2.3327,2.3418,2.3423,2.3365,2.3369,2.3371,2.3373,0,0,0,0,0,0,0,2.2987,2.3001,2.3141,2.3118,2.3123,2.3127,2.3139,2.3201,2.3248,2.3191,2.3193,2.3205,2.3295,2.3321,2.3329,2.3424,2.3365,2.337,2.3374,2.3376,2.3575,2.3577,0,0,0,0,0,0,2.2976,2.2996,2.3137,2.3144,2.3054,2.3132,2.3145,2.3178,2.3247,2.3256,2.3207,2.3206,2.3311,2.3323,2.3334,2.3416,2.3371,2.3377,2.338,2.3574,2.3576,2.3578,0,0,0,0,0,0,2.2972,2.2988,2.3133,2.3071,2.3089,2.3137,2.3174,2.3181,2.3207,2.3259,2.3267,2.3224,2.3311,2.3325,2.3393,2.342,2.3379,2.3385,2.3572,2.3574,2.3577,2.3581,0,0,0,0,0,0,2.2966,2.2987,2.3012,2.3071,2.3093,2.319,2.3175,2.3184,2.3217,2.3217,2.3277,2.3286,2.3311,2.3384,2.3398,2.3428,2.3389,2.3569,2.3573,2.3576,2.3578,2.3583,2.3587,0,0,0,0,0,2.2959,2.3009,2.3013,2.303,2.3125,2.3191,2.3204,2.3231,2.3219,2.3245,2.3278,2.3284,2.3414,2.339,2.3407,2.3438,2.3568,2.3572,2.3576,2.3576,2.3582,2.3587,0,0,0,0,0,0,2.2953,2.3017,2.3023,2.3093,2.3136,2.3194,2.3228,2.3236,2.3284,2.3282,2.3314,2.3328,2.3394,2.3423,2.3395,2.3506,2.349,2.3498,2.3485,2.3491,2.3495,2.3487,2.3394,0,0,0,0,0,2.296,2.3007,2.3061,2.3118,2.314,2.318,2.321,2.3227,2.3273,2.3292,2.3331,2.3376,2.3427,2.3461,2.3511,2.3582,2.3596,2.3612,2.3616,2.362,2.3626,2.3667,2.3675,2.3591,2.3591,2.359,0,0,2.2974,2.3015,2.3044,2.3118,2.3154,2.3203,2.3195,2.3248,2.3285,2.33,2.3366,2.3396,2.3449,2.3519,2.3552,2.3545,2.3652,2.3625,2.3627,2.3632,2.3672,2.3679,2.3686,2.3593,2.3593,2.3592,0,0,2.3026,2.3062,2.3113,2.3149,2.3203,2.3229,2.3241,2.3298,2.3318,2.3384,2.3397,2.3442,2.3529,2.3567,2.3597,2.3663,2.367,2.3678,2.3702,2.3741,2.3748,2.3754,2.3778,2.3786,2.3684,2.3684,2.3684,0,2.3038,2.3112,2.3139,2.3191,2.3224,2.3239,2.3291,2.3325,2.3393,2.3415,2.3407,2.3517,2.3554,2.3633,2.3648,2.3672,2.3688,2.3672,2.3744,2.3751,2.3757,2.378,2.3789,2.3685,2.3685,2.3685,2.3685,0,2.3124,2.3176,2.3211,2.3275,2.3312,2.3364,2.3399,2.3433,2.3446,2.3474,2.3541,2.3586,2.3645,2.3665,2.3679,2.3746,2.374,2.3738,2.3723,2.3765,2.3787,2.3797,2.3686,2.3686,2.3685,2.3685,0,0,2.3176,2.3254,2.3267,2.3296,2.3356,2.3397,2.345,2.3508,2.3536,2.3582,2.3628,2.3702,2.3699,2.3734,2.3752,2.3786,2.3836,2.3779,2.3781,2.3789,2.3914,2.3916,2.3926,2.3841,2.3843,2.3844,2.3909,0,2.3236,2.333,2.3356,2.3436,2.3484,2.3499,2.3545,2.3587,2.3614,2.366,2.3689,2.3741,2.3734,2.3755,2.3789,2.3823,2.3862,2.3818,2.3885,2.3887,2.3872,2.3938,2.394,2.4,2.3918,2.392,2.3921,0,2.3318,2.3366,2.345,2.3505,2.3526,2.3567,2.3622,2.3664,2.3713,2.373,2.3768,2.3783,2.384,2.3821,2.3899,2.3869,2.3898,2.3918,2.3921,2.3929,2.3907,2.3948,2.4019,2.4028,2.3935,2.3934,2.3933,0,2.3349,2.3433,2.3495,2.352,2.3584,2.3613,2.3641,2.3688,2.3721,2.3769,2.3791,2.3845,2.3875,2.3916,2.3946,2.3929,2.4022,2.4005,2.4039,2.4038,2.4059,2.4057,2.4136,2.4075,2.4075,2.4075,2.4075,0,2.3413,2.3465,2.351,2.3548,2.3606,2.3635,2.3692,2.3721,2.3762,2.3807,2.3823,2.3864,2.39,2.3947,2.397,2.4032,2.4045,2.4061,2.4067,2.406,2.4058,2.408,2.4077,2.4077,2.4077,2.4076,2.4076,0,2.3457,2.3489,2.3558,2.3613,2.3628,2.3669,2.3716,2.3754,2.3781,2.3837,2.3852,2.3895,2.395,2.3983,2.4054,2.407,2.4138,2.4142,2.4122,2.4125,2.4156,2.4153,2.4253,2.4268,2.4196,2.4197,2.4198,0,2.3496,2.3536,2.3596,2.3626,2.3655,2.3704,2.3737,2.3767,2.3801,2.3859,2.3891,2.3947,2.3994,2.4082,2.412,2.4174,2.418,2.4211,2.4188,2.418,2.4181,2.4179,2.4183,2.4215,2.4215,2.4216,2.4216,0,2.3563,2.3577,2.3624,2.3677,2.3717,2.376,2.3803,2.3827,2.3864,2.3902,2.3959,2.3995,2.4067,2.4123,2.418,2.421,2.422,2.4223,2.4234,2.4228,2.4215,2.4223,2.4133,2.4221,2.4221,2.422,2.422,2.422,2.3607,2.3643,2.369,2.3743,2.3778,2.3818,2.3856,2.3888,2.3935,2.3996,2.401,2.407,2.4118,2.4195,2.4227,2.4274,2.4269,2.4285,2.4289,2.4292,2.4293,2.4206,2.4285,2.4285,2.4285,2.4284,2.4284,0,2.3675,2.3706,2.3754,2.3813,2.3854,2.3859,2.3907,2.3941,2.3993,2.4037,2.4082,2.4148,2.4202,2.4244,2.43,2.433,2.4336,2.4344,2.4342,2.4349,2.4294,2.428,2.4338,2.4338,2.4338,2.4338,2.4338,2.4338,2.3715,2.3777,2.3796,2.3876,2.3907,2.3965,2.3992,2.4029,2.4064,2.4136,2.4181,2.4208,2.4251,2.431,2.436,2.4371,2.4391,2.4399,2.441,2.4359,2.4353,2.4347,2.4334,2.4403,2.4403,2.4461,2.4462,2.4462]}]]